GEFSSGP_con_cape1000_252.txt.gz
Probability
23 29 23 29 16 0 0 0 0 0 0 0 0 0 0 3 0 0 3 6 6 10 32 42 65 65 65 68 65 68 65 58 58 52 52 48 58 52 61 61 55 52 52 52 52 48 52 52 58
32 23 26 19 0 0 0 0 0 0 0 0 0 0 0 0 0 0 6 10 10 16 29 35 65 71 71 65 68 65 61 65 55 55 58 58 48 52 55 52 52 52 48 45 48 55 58 58 55
19 13 10 3 0 0 0 0 0 0 3 0 0 0 0 0 0 0 3 13 10 26 32 58 61 68 68 68 68 65 65 68 58 58 55 55 55 48 58 48 48 55 52 48 42 58 52 52 48
10 6 3 3 0 0 0 0 0 0 0 0 0 0 3 6 6 3 6 10 10 23 35 45 61 68 71 71 65 65 65 65 65 61 58 55 55 55 52 52 48 48 45 42 42 39 39 42 42
6 3 0 0 0 0 0 0 0 0 0 0 0 3 6 6 3 6 6 6 6 26 35 42 68 68 71 74 71 61 58 61 65 58 55 55 58 52 52 55 48 45 45 45 45 45 39 42 35
0 0 0 0 0 0 0 0 0 0 0 0 0 0 3 10 6 10 6 6 6 19 35 45 71 71 77 74 71 61 58 65 61 55 61 58 58 58 55 39 39 35 32 39 42 42 45 45 42
0 0 0 0 0 0 0 0 0 0 0 0 0 0 3 10 13 13 13 16 16 23 26 29 42 68 74 68 68 61 58 61 58 65 48 55 58 52 52 48 45 39 39 45 42 45 45 48 42
0 0 0 0 0 0 0 0 0 0 0 0 0 0 3 13 13 10 13 23 19 23 23 26 35 42 39 45 61 58 52 58 58 58 48 48 48 48 45 48 55 55 52 52 48 39 45 48 48
0 0 0 0 0 0 0 0 0 0 0 0 0 0 3 13 16 13 19 16 23 26 29 29 26 29 32 32 39 55 58 52 61 55 48 48 48 45 39 42 55 48 48 48 48 39 42 45 45
0 0 0 0 0 0 0 0 0 0 0 3 10 10 10 19 19 19 16 10 26 32 35 29 32 26 23 26 42 42 35 58 61 55 55 55 55 58 35 52 61 52 45 48 45 45 45 42 29
0 3 0 0 0 0 0 0 0 0 0 0 6 6 13 19 19 16 16 13 23 26 23 35 32 39 35 35 39 42 48 48 55 48 55 68 48 48 42 42 48 68 45 45 42 39 39 29 35
3 3 3 0 0 0 0 0 0 0 0 0 6 13 10 10 13 13 23 19 19 19 23 23 35 45 48 45 48 52 48 48 52 65 45 45 48 48 45 61 52 48 48 52 42 55 35 35 23
3 3 3 0 0 0 3 3 3 3 0 0 6 13 10 6 16 13 19 23 26 26 19 23 42 42 52 58 48 45 52 45 45 52 52 45 48 48 52 61 58 32 35 52 61 61 52 45 32
3 3 0 0 3 0 0 0 3 3 0 0 6 6 6 6 10 16 29 32 32 32 32 29 42 45 61 58 55 45 45 65 42 45 48 58 52 58 58 61 55 48 45 48 61 61 58 45 35
3 3 0 0 0 3 0 0 0 0 3 6 6 10 10 10 10 19 35 39 39 35 39 48 48 52 55 61 52 45 39 32 42 52 58 55 45 61 58 52 55 52 52 52 61 45 45 58 35
3 3 0 0 0 0 3 3 3 3 3 3 10 10 16 16 23 29 35 45 48 48 58 55 32 45 61 71 71 55 45 42 45 45 52 55 55 52 68 55 55 65 58 52 48 45 35 48 42
3 3 3 0 0 0 0 3 10 3 3 3 10 10 19 26 32 35 39 42 52 55 65 65 55 58 65 65 68 65 65 68 52 48 48 48 52 48 52 61 81 71 52 55 48 52 45 48 55
3 0 3 3 3 3 3 3 10 10 6 6 6 13 16 29 32 32 42 39 52 58 71 71 68 68 68 71 71 61 61 58 52 48 61 65 61 65 55 58 77 52 52 65 65 65 65 65 65
0 0 3 3 3 3 3 3 6 10 6 6 6 13 13 29 23 29 42 48 55 68 77 74 71 71 71 71 74 65 61 61 55 55 55 68 58 71 71 55 74 71 61 68 52 55 55 52 55
0 0 3 3 3 0 3 6 3 13 13 10 6 10 13 26 23 45 55 55 61 77 74 77 77 71 71 71 77 84 74 61 55 61 71 71 68 68 58 74 68 77 81 84 77 74 55 42 52
0 0 0 3 3 0 3 3 6 6 19 19 13 19 16 16 29 45 61 61 68 68 71 74 77 77 77 74 68 68 74 68 61 65 77 71 65 58 71 71 74 77 65 68 77 71 71 55 45
0 0 0 0 3 0 0 0 10 6 19 29 26 26 26 23 26 39 55 68 71 68 68 77 77 77 77 77 68 61 68 58 65 71 65 65 68 61 65 74 77 77 68 84 74 65 68 61 48
0 0 0 0 0 0 0 0 10 13 26 39 45 32 32 29 26 35 42 58 65 68 68 74 77 77 77 77 77 74 65 65 65 68 71 71 71 68 65 65 74 81 74 77 77 81 71 61 55
3 3 3 3 0 0 0 0 6 6 19 23 29 39 39 35 32 32 48 55 58 65 68 68 81 81 77 77 77 81 77 71 65 71 71 68 71 74 68 65 74 81 77 81 81 84 65 68 65
0 0 0 0 0 0 0 0 6 6 13 19 32 32 39 39 48 48 55 65 61 65 68 71 77 81 77 74 74 74 77 77 74 65 68 71 61 65 71 61 74 77 81 81 81 81 71 65 71
0 0 0 0 0 0 0 3 10 6 19 23 29 35 29 39 52 55 61 68 58 61 65 68 77 77 77 77 77 74 77 74 65 68 61 65 55 52 61 65 71 71 74 74 77 74 71 74 74
0 0 0 0 0 0 0 6 6 16 23 35 32 39 39 39 42 58 65 65 61 55 68 71 77 77 77 77 77 77 74 74 68 68 65 52 58 52 55 61 71 74 74 74 74 71 77 77 65
0 0 0 0 0 0 0 6 6 16 23 29 32 29 42 42 39 42 65 68 71 65 68 71 71 77 74 74 74 71 74 68 71 65 61 58 58 58 61 61 65 61 71 71 74 74 71 68 68
0 0 0 0 0 0 0 6 3 13 26 35 39 29 42 42 42 45 61 65 71 71 68 71 74 74 74 74 74 74 71 68 68 68 55 55 55 55 58 58 58 65 65 68 71 55 58 58 55
0 0 0 0 0 0 0 3 13 13 29 42 45 39 48 45 42 48 61 68 71 71 71 71 71 74 74 74 74 65 68 68 68 61 61 58 58 58 58 61 65 65 58 61 55 55 58 52 45

GEFSSGP_con_cape1000_258.txt.gz
Probability
10 13 35 68 55 13 0 0 0 0 0 0 0 0 0 0 0 0 0 10 19 19 35 48 71 65 61 58 61 61 61 55 55 52 55 55 55 55 48 48 52 55 58 58 52 55 58 48 58
10 32 52 45 23 0 0 0 0 0 0 0 0 0 0 3 0 0 0 10 10 23 39 48 65 68 68 61 65 61 58 55 52 48 42 42 52 52 45 45 58 55 52 58 52 55 55 58 45
26 32 32 26 0 0 0 0 0 0 0 0 0 0 0 0 0 0 3 13 13 35 42 61 77 68 61 65 65 68 65 58 55 48 42 39 35 35 39 42 55 55 48 52 52 45 42 52 58
35 39 26 3 0 0 0 0 0 0 0 0 0 0 0 0 0 3 6 10 16 26 35 58 77 74 68 61 65 65 71 65 52 48 45 35 39 39 42 42 42 58 55 58 48 52 45 39 45
26 23 10 0 0 0 0 0 0 0 0 0 0 3 0 0 0 3 6 16 19 23 32 45 81 74 65 61 58 61 61 61 58 52 48 39 39 39 42 48 42 42 42 39 42 42 42 39 32
13 6 0 0 0 0 0 0 3 3 3 0 0 0 0 3 6 6 13 19 19 23 32 48 77 77 74 65 52 55 52 65 55 55 45 42 39 35 39 42 45 45 39 32 35 35 32 32 29
3 0 0 0 0 0 0 0 0 3 3 0 0 0 0 6 10 6 6 16 16 26 35 39 55 61 71 65 55 52 48 52 55 61 58 55 39 45 42 45 48 42 39 35 48 45 42 35 32
3 0 0 0 0 0 0 0 0 3 3 3 0 0 6 6 6 6 6 10 13 19 26 32 45 52 52 48 55 58 52 55 55 61 52 48 39 45 52 52 48 42 35 39 39 39 39 39 39
0 0 0 0 0 0 0 0 0 3 3 6 6 3 6 6 6 13 13 13 19 23 29 26 26 32 42 35 39 65 61 55 52 55 58 55 45 29 39 35 48 45 42 39 35 35 39 35 32
0 0 0 0 0 0 0 0 0 3 3 3 0 3 3 3 3 13 13 13 16 19 23 29 29 26 26 26 61 61 55 68 71 68 68 58 58 45 26 42 52 55 48 45 39 45 48 39 29
0 0 0 0 0 0 0 0 3 3 3 0 3 6 10 10 13 16 19 23 16 26 26 35 45 61 55 55 58 61 61 71 61 68 65 68 55 48 45 52 48 55 45 42 45 35 35 35 45
0 0 0 0 0 0 0 3 3 3 3 0 3 6 6 10 10 10 19 26 23 26 32 32 42 58 74 65 68 61 55 65 61 68 71 68 71 65 65 71 68 61 65 68 58 58 55 35 35
0 0 0 0 0 3 3 3 3 3 0 3 3 3 3 10 10 13 16 19 26 39 39 52 58 61 68 71 71 61 71 55 58 74 74 68 74 71 71 68 77 61 71 68 71 65 68 48 39
0 0 0 0 0 3 3 3 0 0 0 3 3 3 3 13 16 19 23 26 26 32 39 55 52 68 74 71 81 77 71 81 81 74 74 68 74 77 77 71 74 71 77 71 81 71 71 58 55
0 0 0 0 0 3 3 3 0 0 0 0 3 6 13 16 13 16 26 32 26 39 45 55 65 71 77 74 77 71 68 61 81 81 77 74 74 84 81 77 77 74 74 77 71 77 68 71 52
0 0 0 0 0 0 3 3 0 0 0 0 0 3 10 16 16 16 26 48 52 52 58 58 42 71 77 81 81 84 71 77 77 74 74 71 65 74 74 77 77 77 74 81 81 77 71 71 71
0 0 0 0 0 0 3 3 0 0 0 0 0 3 10 16 19 19 23 32 58 65 71 68 74 74 77 77 77 77 81 81 74 74 74 77 58 68 68 77 77 74 81 74 74 84 74 71 71
0 0 0 0 0 0 3 3 3 3 3 3 6 6 16 16 26 26 29 29 55 71 71 77 81 77 74 77 81 81 77 81 77 74 74 71 65 68 74 74 81 71 71 74 81 81 77 71 71
0 0 0 0 0 3 3 3 0 3 6 3 6 10 16 26 26 23 23 32 55 68 77 77 77 81 81 81 81 74 74 77 81 77 77 77 77 71 77 68 74 77 77 77 74 74 74 74 68
0 0 0 0 0 3 3 6 6 3 6 3 10 13 19 23 26 45 39 45 58 81 81 84 84 77 81 84 81 81 77 74 74 74 74 77 74 74 65 84 71 81 84 84 77 77 74 71 74
0 0 0 0 0 3 3 3 0 6 6 10 6 13 16 23 26 42 45 52 58 68 81 77 81 84 81 84 81 77 81 74 74 74 77 77 77 77 71 81 74 81 77 81 84 77 74 71 71
0 0 0 0 0 3 3 3 10 6 6 10 13 19 19 23 19 45 48 61 68 68 77 81 81 81 81 84 81 81 81 74 74 74 74 77 81 77 71 71 74 81 77 84 77 71 74 74 71
0 0 0 0 0 0 0 0 10 6 6 16 13 13 23 26 26 42 48 65 68 68 68 81 81 81 81 84 81 84 81 77 74 77 77 81 81 77 71 74 81 81 77 84 84 84 81 84 77
0 0 3 3 0 0 0 0 13 19 23 16 19 10 26 26 26 42 52 74 68 68 68 77 81 84 81 81 81 84 81 84 77 77 77 77 77 74 74 71 74 74 77 77 81 84 81 81 81
0 0 0 0 0 0 0 3 13 10 16 10 16 23 23 26 35 35 52 65 71 65 71 77 84 84 84 81 81 81 81 81 81 81 81 77 71 68 68 65 71 74 81 84 81 77 81 77 77
0 0 0 0 0 0 3 3 10 16 19 23 23 26 23 39 39 45 58 65 65 68 71 74 84 84 84 84 84 84 81 81 81 84 81 71 68 71 71 71 71 71 74 71 77 81 77 74 77
0 0 0 0 0 0 3 10 16 19 16 19 23 29 26 26 39 52 48 52 55 65 68 71 81 81 81 81 81 81 81 81 81 77 77 71 74 68 68 65 71 71 68 74 74 74 71 71 71
0 0 0 0 3 0 0 3 10 29 23 19 23 23 32 23 32 45 55 68 68 61 71 74 81 81 81 81 81 77 81 81 81 71 71 71 68 74 71 68 71 71 71 68 71 74 68 65 61
0 0 0 0 3 0 0 0 13 23 32 26 26 32 42 35 35 35 52 58 68 68 74 74 74 77 81 81 81 81 81 81 74 74 74 68 68 68 65 68 71 68 68 71 71 68 61 58 58
0 0 0 0 6 3 0 0 6 19 23 29 35 39 32 35 32 35 48 58 65 65 71 74 74 77 77 77 81 81 77 77 71 74 74 71 71 71 68 68 65 65 68 65 65 61 55 55 55

GEFSSGP_con_cape1000_264.txt.gz
Probability
32 10 10 19 13 0 0 0 0 0 0 0 0 0 0 0 0 0 3 10 13 35 45 58 74 65 68 65 55 58 61 58 55 55 52 52 55 55 61 58 65 71 71 65 61 55 61 61 58
6 10 16 16 3 0 0 0 0 0 0 0 0 0 0 0 0 3 10 16 16 26 29 48 65 61 65 65 71 61 58 58 61 55 48 48 55 52 58 61 65 61 65 61 61 52 52 58 55
6 19 16 10 3 0 0 0 0 0 0 0 0 0 0 0 0 3 16 19 19 23 42 55 61 61 61 71 71 71 61 58 55 52 52 48 48 55 52 61 58 61 65 61 65 52 45 52 55
3 10 6 3 0 0 0 0 0 0 0 0 0 0 0 0 0 0 10 19 29 29 48 58 74 71 68 71 68 71 65 52 48 48 48 48 55 55 55 52 61 58 61 61 58 52 42 55 58
3 6 6 3 0 0 0 0 0 0 0 0 0 0 0 0 0 10 10 16 19 26 42 52 74 71 68 68 74 68 65 55 55 48 52 55 55 52 61 58 55 58 58 61 52 55 58 48 42
3 3 3 0 0 0 0 0 0 0 0 0 0 0 0 0 3 10 6 10 19 26 35 55 68 65 68 71 65 68 65 58 58 52 52 52 52 55 65 52 52 52 52 61 55 52 48 39 39
3 3 3 0 0 0 0 0 0 0 0 0 0 0 0 0 3 6 6 13 23 26 29 35 48 55 71 71 55 58 65 61 61 61 61 58 48 52 65 65 55 52 52 45 42 39 35 32 35
3 0 0 0 0 0 0 0 0 0 0 0 0 0 0 0 3 6 6 10 16 10 19 19 23 23 32 45 65 58 65 61 65 61 65 61 55 48 52 58 61 52 48 39 35 39 39 35 35
3 0 0 0 0 0 0 0 0 0 0 0 0 0 3 3 6 3 3 10 10 10 13 13 16 10 13 16 48 61 65 61 61 58 68 48 23 29 35 48 55 65 52 39 39 48 42 39 39
3 0 0 0 0 0 0 0 0 0 0 0 3 3 6 6 3 6 3 6 6 10 10 13 13 10 6 10 10 13 32 35 35 23 29 23 16 19 29 39 52 58 52 52 42 45 48 23 13
0 0 0 0 0 0 0 0 0 0 0 0 3 3 3 3 3 3 6 6 10 6 6 3 6 6 3 3 6 3 6 13 19 16 19 16 13 23 26 19 35 35 35 26 39 32 13 10 10
0 0 0 0 0 0 0 0 0 0 0 3 3 3 3 6 6 6 10 10 13 16 13 13 10 6 6 6 10 10 13 13 16 16 19 16 16 13 13 13 13 13 13 10 16 10 10 6 3
0 0 0 0 0 0 0 0 0 0 3 3 6 6 6 6 6 6 6 6 10 16 16 16 19 13 10 13 19 23 23 23 19 13 16 16 13 13 10 13 13 10 13 13 13 16 10 13 13
0 0 0 0 0 0 0 0 0 0 3 6 6 6 6 10 3 6 6 6 10 16 19 23 16 10 16 13 13 19 23 23 16 10 10 13 13 10 10 6 10 13 13 13 10 10 10 13 16
0 0 0 0 0 0 0 0 0 0 3 6 6 6 6 6 3 3 3 10 10 13 19 13 16 19 19 16 13 16 19 26 6 6 10 13 13 10 13 10 13 16 13 13 10 10 6 16 16
0 0 0 0 0 0 0 0 0 0 6 6 6 6 6 6 3 3 6 13 10 13 23 23 26 19 13 10 13 23 16 16 13 13 10 10 10 13 16 16 19 19 13 10 10 16 10 13 6
0 0 0 0 0 0 0 3 0 0 6 6 6 10 6 6 6 6 10 13 13 16 23 26 23 13 13 19 23 23 23 29 23 19 19 13 16 16 16 19 16 19 16 13 13 13 10 13 6
0 0 0 0 0 0 3 3 3 6 6 6 6 6 6 6 6 6 16 13 16 19 19 16 19 23 23 23 29 23 26 32 29 26 23 19 19 19 23 19 19 19 19 19 19 19 19 3 6
0 0 0 0 0 0 0 0 3 6 6 6 6 6 6 6 3 6 13 16 16 19 19 23 23 23 23 26 32 29 35 35 32 26 19 19 16 23 23 23 23 26 19 19 23 23 16 10 6
0 0 0 0 0 0 0 0 0 3 3 6 0 3 3 3 3 10 13 19 19 19 19 23 23 29 32 39 35 35 39 35 32 29 23 19 19 19 23 16 19 16 13 13 16 16 10 10 6
0 0 0 0 0 0 0 0 0 3 3 3 0 3 3 6 6 3 6 19 23 19 26 29 29 29 35 39 35 35 35 39 35 26 19 23 19 23 23 16 19 16 16 13 10 23 16 16 10
0 0 0 0 0 0 0 0 0 0 0 0 0 3 3 3 10 6 13 16 23 23 29 32 32 32 35 35 35 39 32 32 39 39 32 29 29 26 26 23 29 26 26 19 16 19 19 16 13
0 0 0 0 0 0 0 0 3 3 0 0 0 3 3 6 6 10 6 13 23 35 42 42 35 32 39 48 39 35 29 29 35 39 32 32 32 32 39 32 32 29 32 29 23 26 16 13 10
0 0 0 0 0 0 0 0 0 0 0 0 0 3 6 6 10 10 6 13 26 35 45 48 48 42 45 45 42 35 32 35 35 35 35 35 32 35 39 39 42 35 35 35 29 29 19 19 16
0 0 0 0 0 0 0 0 0 0 0 0 0 3 6 10 10 16 10 19 23 32 35 42 52 48 39 42 45 39 39 35 39 39 39 39 35 35 35 39 32 32 35 35 32 32 29 26 19
0 0 0 0 0 0 0 0 0 0 0 0 0 3 6 10 13 13 13 29 26 35 35 45 45 42 45 48 45 42 42 42 45 42 42 39 35 29 35 32 35 32 32 42 32 29 32 32 23
0 0 0 0 0 0 0 3 0 0 0 0 0 6 6 6 13 16 13 26 29 32 39 45 48 45 45 48 48 42 42 45 39 39 35 32 32 32 32 32 35 39 35 32 29 39 35 32 29
0 0 0 0 0 0 0 0 0 0 0 3 3 6 6 10 13 19 19 23 32 39 35 48 45 48 45 45 42 45 39 35 32 39 39 32 32 32 32 29 32 39 35 32 32 29 23 29 19
0 0 0 0 0 0 0 0 0 0 0 6 6 6 10 10 19 19 19 23 23 32 39 52 48 52 48 48 39 39 39 39 39 39 39 32 32 32 29 32 35 35 29 26 26 23 23 29 26
0 0 0 0 0 0 0 0 0 3 6 10 13 13 13 13 13 13 13 16 23 35 39 52 55 55 55 52 45 45 48 48 42 39 39 32 29 29 26 39 32 29 29 26 32 26 26 26 23

GEFSSGP_con_cape1000_270.txt.gz
Probability
23 19 13 3 0 0 0 0 0 0 0 0 0 0 0 0 0 0 0 3 10 16 29 42 55 55 52 58 65 74 65 71 68 61 58 61 65 65 68 61 55 65 61 61 61 68 68 71 71
13 16 6 3 0 0 0 0 0 0 0 0 0 0 0 3 3 3 3 10 16 19 23 29 45 48 55 68 68 68 65 71 68 65 65 61 61 65 68 58 61 61 58 52 61 65 61 68 68
6 6 3 3 0 0 0 0 0 0 0 0 0 0 0 0 3 3 0 10 10 13 19 29 52 58 65 68 65 65 61 58 61 68 58 52 55 58 61 61 68 68 55 48 52 65 58 55 68
3 3 3 3 0 0 0 0 0 0 0 0 0 0 0 0 0 3 6 6 13 10 23 32 65 68 65 68 65 61 68 58 58 65 58 58 52 58 61 65 77 74 61 61 61 61 48 52 65
0 0 0 0 0 0 0 0 0 0 0 0 0 0 0 0 3 3 3 6 6 6 23 32 61 65 55 58 65 61 65 58 58 61 61 61 65 58 65 71 74 68 61 65 58 48 45 65 65
0 3 0 0 0 0 0 0 0 0 0 0 0 0 0 0 6 3 3 10 16 13 23 35 52 65 71 65 55 65 58 61 58 55 52 55 58 65 74 68 71 61 58 61 55 48 39 52 52
3 3 0 0 0 0 0 0 0 0 0 0 0 0 0 3 6 3 6 10 10 16 19 19 26 26 52 58 68 58 65 61 61 65 65 58 58 61 65 71 68 58 55 61 52 39 32 35 45
3 0 0 0 0 0 0 0 0 0 0 0 0 0 0 3 6 6 3 6 10 10 13 10 6 13 19 26 42 65 65 68 71 68 65 61 61 55 68 65 58 52 52 48 45 35 32 32 39
3 0 0 0 0 0 0 0 0 0 0 0 0 0 0 3 6 6 6 3 3 3 3 3 6 6 10 13 19 35 45 52 58 58 58 48 16 10 23 52 45 48 52 48 42 39 35 42 32
0 3 0 0 0 0 0 0 0 3 3 3 0 0 3 6 6 3 3 0 3 3 3 3 3 6 6 10 6 10 16 19 23 16 16 13 16 16 29 52 55 52 52 52 52 45 48 29 26
0 0 0 0 0 0 0 0 0 3 3 3 3 3 0 3 6 6 6 0 0 3 3 3 3 3 6 6 6 6 6 6 6 10 3 13 13 6 13 13 16 16 23 19 23 23 13 19 13
0 0 0 0 0 0 0 0 0 0 6 6 6 6 3 3 3 3 6 6 6 6 3 0 0 3 3 3 3 3 6 10 6 10 16 10 6 6 3 6 10 13 13 13 10 6 6 6 6
0 0 0 0 0 0 0 0 3 3 6 6 6 10 6 3 3 3 6 3 3 3 3 3 0 0 0 3 3 6 10 6 6 6 10 10 6 6 3 3 10 13 10 6 10 6 6 10 10
0 0 0 0 0 0 3 3 3 6 6 6 6 10 6 3 3 3 0 3 3 3 0 0 0 0 0 0 0 0 3 3 3 3 6 10 6 6 6 3 6 13 13 13 13 10 10 16 16
0 0 0 0 0 0 0 3 3 6 6 6 6 6 10 3 0 0 0 3 0 3 3 0 6 0 0 0 3 3 3 0 3 3 10 6 10 10 10 3 3 6 10 6 3 3 10 6 13
0 0 0 0 0 0 0 3 3 6 6 6 6 6 6 6 0 0 0 0 0 3 3 3 10 3 0 3 6 3 3 6 3 6 10 10 10 6 10 10 6 6 10 6 3 3 3 6 6
0 0 0 0 0 0 0 3 3 6 6 6 6 6 6 3 0 0 0 3 3 3 0 3 3 0 6 6 3 3 6 6 10 6 10 10 13 13 13 10 10 10 10 10 10 3 3 6 6
0 0 0 0 0 3 0 0 3 6 6 6 3 3 6 6 3 0 0 3 3 3 3 0 0 3 3 6 10 13 13 10 10 13 10 13 16 16 16 13 10 13 6 10 10 6 3 3 3
0 0 0 0 0 3 3 3 6 6 6 3 3 0 3 6 3 3 3 3 6 3 3 3 3 6 13 13 10 10 13 10 6 10 10 16 16 16 13 10 10 10 10 10 10 10 6 3 3
0 0 0 0 0 0 0 0 3 6 6 3 0 0 0 6 6 3 3 3 6 6 10 3 3 6 10 10 10 10 10 10 10 10 10 13 16 16 16 13 13 13 13 13 10 13 13 10 6
0 0 0 0 0 0 0 0 0 0 3 3 0 0 0 3 3 0 3 6 6 6 3 6 6 10 10 10 10 16 13 10 10 10 13 13 16 16 19 13 13 16 10 13 10 10 10 13 3
0 0 0 0 0 0 0 0 0 0 0 0 0 0 0 3 3 0 3 3 3 6 6 6 10 10 13 13 16 13 16 16 10 10 13 16 16 16 16 19 16 16 13 13 13 16 6 6 10
0 0 0 0 0 0 0 0 0 0 0 0 0 0 0 0 3 3 3 3 6 6 10 6 6 10 10 10 13 13 13 13 10 10 13 13 16 10 10 13 16 10 13 13 13 19 13 10 10
0 0 0 0 0 0 0 0 0 0 0 0 0 0 0 0 3 3 3 6 6 6 10 6 6 10 10 16 16 16 16 16 16 19 19 16 10 13 13 16 13 13 10 16 13 16 13 13 6
0 0 0 0 0 0 0 0 0 0 0 0 0 0 3 10 6 3 6 6 6 6 10 3 3 3 10 13 19 19 16 16 16 16 19 23 13 13 23 26 13 16 16 26 23 16 16 10 10
0 0 0 0 0 0 0 0 0 0 0 0 0 3 3 10 3 3 6 10 10 10 6 10 10 6 13 19 19 19 16 13 16 16 23 23 19 19 19 23 19 29 32 35 23 16 19 16 3
0 0 0 0 0 0 0 0 0 0 0 0 3 6 3 6 6 6 6 6 10 13 13 16 16 19 23 23 16 16 13 13 16 13 19 19 13 16 13 19 19 23 23 23 19 16 19 13 13
0 0 0 0 0 0 0 0 0 0 0 0 3 6 3 3 10 10 3 3 3 16 16 16 23 26 26 26 23 19 10 13 13 13 13 16 13 16 16 19 19 23 16 16 10 10 13 13 16
0 0 0 0 0 0 0 0 0 0 0 0 3 3 3 6 3 3 6 6 13 13 19 23 29 29 29 23 16 16 13 13 13 16 23 23 13 13 16 23 19 16 16 13 16 13 13 13 16
0 0 0 0 0 0 0 0 0 0 0 3 3 0 3 3 3 3 6 10 10 6 13 23 29 32 29 23 19 19 16 13 16 23 23 23 16 13 16 13 16 16 16 13 16 19 13 16 16

GEFSSGP_con_cape1000_276.txt.gz
Probability
19 26 32 29 16 0 0 0 0 0 0 0 0 0 0 0 0 0 3 3 3 3 10 29 48 58 58 58 52 65 55 55 58 61 58 71 68 71 68 71 74 71 68 71 65 65 81 77 68
32 32 29 26 3 0 0 0 0 0 0 0 0 0 0 0 3 3 3 3 3 3 13 23 55 55 58 61 61 65 58 61 65 65 61 68 68 68 71 68 65 65 61 71 65 58 68 68 61
35 29 19 10 0 0 0 0 0 0 0 0 0 0 0 3 3 3 3 3 3 3 10 29 58 58 61 65 68 65 58 61 65 61 71 68 68 68 71 68 61 61 61 61 65 58 58 68 61
32 23 13 3 0 0 0 0 0 0 0 0 0 0 0 3 3 3 3 3 3 3 6 23 58 65 65 68 71 61 55 61 61 68 68 71 68 71 71 68 61 65 65 65 58 65 68 68 61
26 16 3 0 0 0 0 0 0 0 0 0 0 0 0 6 3 0 0 3 3 6 10 19 55 68 65 71 68 68 58 61 65 71 71 61 68 68 74 74 61 68 61 61 52 58 65 65 65
10 6 0 0 0 0 0 0 0 0 0 0 0 0 0 3 3 0 3 3 3 3 13 13 39 52 65 65 68 71 68 68 68 71 68 71 71 65 74 71 65 61 65 55 48 52 48 58 58
6 3 0 0 0 0 0 0 0 0 0 0 0 0 0 3 6 0 6 3 3 10 13 13 13 26 45 58 61 58 68 71 71 58 61 61 65 68 68 68 68 61 61 55 45 52 55 39 52
3 3 0 0 0 0 0 0 0 0 0 0 0 0 0 6 3 10 16 19 16 10 10 19 19 32 26 32 48 48 55 55 61 55 52 55 61 55 61 58 65 55 55 48 35 42 42 39 45
6 3 0 0 0 0 0 0 0 0 0 0 3 3 0 3 3 3 13 19 23 19 16 16 16 26 32 26 32 42 52 52 58 68 58 52 48 42 45 39 48 45 45 45 39 42 45 42 42
0 0 0 0 0 0 0 0 0 0 0 3 3 6 10 3 3 6 13 10 13 16 19 16 23 23 19 23 42 48 42 61 61 71 55 55 61 42 23 39 55 58 52 45 39 48 39 32 23
0 0 0 0 0 0 0 0 0 0 0 3 6 6 3 6 10 3 6 10 16 16 16 16 23 39 26 35 39 48 42 61 52 52 55 58 45 39 32 42 45 48 45 42 35 35 23 13 19
0 0 0 0 0 0 0 0 0 0 0 3 10 13 10 6 6 6 6 13 16 16 16 16 29 39 42 39 45 42 48 52 45 55 58 55 45 42 35 45 35 32 39 35 35 42 29 26 16
3 0 0 0 0 0 0 0 0 0 3 3 13 13 6 13 13 6 10 10 16 29 16 19 32 39 48 52 48 42 42 45 52 61 61 58 42 45 32 42 55 39 35 39 42 42 32 32 26
0 0 0 0 0 0 0 0 0 3 3 6 13 13 10 13 10 10 10 13 19 19 19 23 35 45 48 42 45 42 42 52 48 48 55 52 42 45 39 39 52 35 35 35 39 35 45 35 32
0 0 0 0 0 0 0 0 3 3 3 13 13 16 13 10 13 10 16 16 16 26 32 45 45 42 39 39 39 39 35 42 48 52 52 48 42 45 39 39 55 45 48 42 45 42 42 45 35
0 0 0 0 0 0 0 0 3 3 6 10 13 13 19 16 13 16 13 23 23 26 39 45 26 39 42 48 48 42 42 45 45 52 45 42 42 48 52 48 48 52 45 52 52 48 45 42 42
0 0 0 0 0 0 0 0 6 3 6 6 13 13 13 19 16 16 16 16 26 29 48 52 45 42 42 48 48 42 52 48 48 48 45 42 42 42 42 48 58 52 52 42 39 45 42 39 39
0 0 0 0 0 0 0 0 6 6 6 6 10 13 16 16 19 23 19 19 23 32 48 58 61 61 55 48 55 48 45 35 48 45 45 42 45 39 39 42 48 45 48 55 58 55 52 45 42
0 0 0 0 0 0 0 0 3 10 3 6 6 13 13 13 13 23 19 19 29 29 48 61 61 68 65 55 55 45 39 45 45 42 39 42 42 35 35 39 45 45 55 55 42 45 48 42 45
0 0 0 0 0 0 0 3 3 10 6 6 6 13 13 13 10 19 19 19 23 45 65 68 71 65 65 61 58 55 45 35 39 42 42 39 39 39 32 39 35 48 61 61 58 58 55 42 45
0 0 0 0 0 0 0 3 3 10 10 10 13 13 13 13 10 23 23 26 29 48 55 55 68 74 65 58 52 48 55 55 42 45 48 42 42 39 39 42 45 52 42 52 58 61 61 45 45
0 0 0 0 0 0 0 0 0 6 10 13 16 23 13 13 13 16 26 32 29 32 45 58 71 68 68 65 55 52 55 48 55 55 52 55 45 39 39 45 48 55 52 58 55 52 52 55 52
0 0 0 0 0 0 0 0 3 3 6 6 16 29 23 23 16 19 16 29 29 32 35 61 71 68 68 68 68 65 48 45 45 52 52 52 45 42 35 42 45 52 52 58 58 61 65 55 48
0 0 0 0 0 0 0 0 0 3 3 6 13 16 35 26 23 16 16 29 35 35 39 52 68 65 65 65 65 68 68 52 52 52 52 52 42 42 42 39 52 52 52 55 61 61 58 68 65
0 3 3 0 0 0 0 0 0 3 6 10 13 13 16 23 23 23 19 29 32 39 42 45 65 65 65 65 65 65 61 61 58 55 45 42 35 42 48 42 48 52 52 55 55 58 58 58 58
3 0 0 0 0 0 0 0 3 3 6 6 16 16 16 10 23 13 19 29 35 35 42 52 65 65 65 65 65 61 61 58 48 52 52 48 42 42 45 48 52 52 52 48 55 52 52 52 52
0 0 0 0 0 0 0 0 0 13 10 13 13 13 16 13 16 19 23 26 32 35 58 52 61 65 68 65 61 65 65 58 48 52 52 52 48 42 48 42 39 48 42 35 42 42 48 52 45
0 0 0 0 0 0 0 0 0 10 19 13 16 19 19 19 16 13 26 35 42 42 58 61 65 68 65 65 61 55 58 55 58 55 55 52 48 48 45 45 42 42 45 39 45 39 45 45 48
0 0 0 0 0 0 0 0 6 13 19 23 26 23 23 26 6 16 29 39 48 48 52 58 65 61 65 65 61 58 52 52 55 55 55 58 55 55 45 39 42 45 42 42 39 42 42 42 39
0 0 0 0 0 0 0 3 3 10 19 26 23 19 16 26 13 26 29 48 48 48 48 52 55 61 65 61 61 61 52 52 48 52 55 58 58 58 42 42 42 35 35 35 35 32 32 35 32

GEFSSGP_con_cape1000_282.txt.gz
Probability
10 16 35 71 58 16 0 0 0 0 0 0 0 0 0 0 0 3 6 3 3 13 26 39 58 52 61 58 61 55 55 58 61 61 65 71 71 71 71 65 68 68 61 61 74 65 58 61 68
13 26 45 52 26 0 0 0 0 0 0 0 0 0 0 0 3 3 10 6 3 13 19 39 58 58 58 58 58 55 58 52 61 65 65 58 68 65 65 68 68 68 65 58 52 61 61 58 58
19 52 52 42 3 0 0 0 0 0 0 0 0 0 0 0 0 3 6 6 10 6 16 39 61 58 48 65 55 58 55 58 58 61 68 71 68 68 68 61 61 71 65 65 52 52 55 61 45
55 52 42 10 3 0 0 0 0 0 0 0 0 0 0 0 3 6 6 3 6 6 13 32 61 65 68 71 55 52 48 55 58 65 74 68 65 65 61 55 58 65 68 61 61 58 58 58 48
45 42 23 6 0 0 0 0 0 0 0 0 0 0 0 0 3 3 6 6 3 3 10 26 71 58 61 68 65 55 52 55 58 58 68 68 71 71 65 52 55 61 58 58 58 55 61 45 48
35 23 6 0 0 0 0 0 0 0 0 0 0 0 0 0 3 3 3 6 6 6 10 29 71 77 68 68 58 65 58 61 68 58 58 65 74 68 71 58 55 55 58 52 55 52 55 48 45
16 6 3 0 0 0 0 0 0 0 0 0 0 0 3 3 13 6 3 10 16 16 13 23 23 55 58 61 65 65 65 58 65 61 52 68 61 68 61 55 52 52 55 55 52 42 35 45 52
3 3 0 0 0 0 0 0 0 0 0 0 0 3 6 3 10 13 16 16 23 19 16 16 19 42 42 45 52 55 61 58 58 65 61 65 68 61 52 58 58 52 45 45 45 45 42 39 45
0 0 0 0 0 0 0 0 0 0 0 0 0 3 6 6 6 10 10 10 16 16 16 10 13 23 35 29 32 52 55 55 65 65 65 71 48 39 39 32 48 39 42 42 45 48 45 48 42
0 0 0 0 0 0 0 0 0 0 3 6 0 0 3 3 6 10 13 10 19 23 19 19 19 19 19 26 48 61 55 61 61 65 74 61 71 71 19 35 45 42 45 42 48 45 42 39 29
0 0 0 0 0 0 0 0 0 0 3 6 3 3 3 0 10 16 16 16 19 26 26 23 32 42 29 48 52 61 58 71 58 58 65 65 65 58 39 39 42 45 42 35 35 42 26 26 19
0 0 0 0 0 0 0 0 0 0 0 6 6 3 3 13 10 19 16 19 26 29 19 26 39 48 58 52 61 52 55 55 52 61 58 58 74 71 68 71 48 45 45 48 42 52 39 42 29
0 0 0 0 0 0 0 0 0 0 3 3 3 3 3 10 10 16 19 26 26 29 23 35 55 55 48 61 65 52 52 55 58 65 61 58 61 68 74 74 71 52 48 45 55 45 48 39 32
0 0 0 0 0 0 0 0 0 0 0 6 3 3 6 10 13 13 19 32 32 29 35 42 52 61 68 65 68 58 55 65 58 55 55 58 68 74 71 71 71 58 58 58 55 45 55 48 45
0 0 0 0 0 0 0 0 0 0 3 6 6 6 13 13 16 16 23 32 26 26 42 48 55 55 71 71 58 55 58 48 52 58 61 58 61 68 68 71 71 68 65 61 55 45 55 52 39
0 0 0 0 0 0 0 0 0 3 3 6 6 10 13 13 13 10 16 32 35 42 61 52 26 52 71 71 71 58 55 61 58 58 58 55 58 65 65 68 61 65 65 61 65 61 58 55 52
0 0 0 0 0 0 0 0 3 3 0 6 6 13 13 16 16 16 19 23 35 58 65 58 61 61 61 61 68 68 61 65 58 58 58 55 55 55 61 65 58 55 58 61 48 65 61 58 55
0 0 0 0 0 0 0 0 0 3 3 3 6 10 19 16 16 13 19 19 42 61 71 74 71 71 65 65 68 68 65 61 58 55 58 52 48 48 48 55 58 52 58 61 61 65 68 68 55
0 0 0 0 0 0 0 0 0 3 3 3 6 13 19 16 16 13 16 19 39 58 71 74 71 77 77 71 65 68 61 65 58 58 55 52 42 42 55 45 48 55 55 55 55 58 58 61 61
0 0 0 0 0 0 0 0 0 0 3 3 6 13 16 16 19 16 19 29 45 65 77 77 77 74 74 77 77 81 74 68 61 58 65 55 48 48 39 55 48 55 58 55 55 58 61 58 52
0 0 0 0 0 0 0 0 0 0 0 3 6 10 13 13 19 23 26 29 39 55 68 61 81 81 84 74 77 74 77 71 65 68 68 55 55 45 48 52 52 55 58 61 61 65 55 61 58
0 0 0 0 0 0 0 0 0 0 0 0 3 10 13 13 19 26 23 35 42 55 71 84 84 84 87 84 77 68 71 61 65 74 68 65 52 42 45 52 52 55 61 61 61 65 65 58 61
0 0 0 0 0 0 0 0 3 3 0 0 6 6 16 19 23 26 19 39 45 48 65 81 81 81 81 81 77 74 71 68 68 74 71 68 65 48 42 52 55 55 55 61 61 65 65 65 65
0 0 0 0 0 0 0 0 0 3 6 6 6 13 19 19 19 29 26 45 45 48 58 74 81 84 84 77 77 84 81 74 71 74 68 65 65 58 52 55 52 55 58 61 68 68 68 71 65
0 0 0 0 0 0 0 0 3 3 6 10 16 23 19 19 19 32 32 45 45 48 55 68 81 84 84 77 77 81 81 84 77 71 65 61 55 55 58 52 58 52 61 58 65 68 58 58 58
0 0 0 0 0 0 0 3 6 10 10 10 23 29 19 16 19 23 32 42 39 42 55 68 81 81 84 77 81 81 77 74 65 65 58 61 58 45 55 58 61 65 61 52 61 48 52 61 61
0 0 0 0 0 0 0 3 10 10 13 10 16 26 19 19 16 32 26 42 39 39 55 58 74 81 81 81 81 81 81 74 71 74 61 55 58 55 55 58 52 58 61 55 48 48 52 48 55
0 0 0 0 0 0 0 3 6 13 13 6 13 23 26 19 16 29 35 45 45 45 65 68 74 84 84 81 74 71 74 74 71 68 68 61 61 61 58 55 55 55 55 55 55 45 48 52 52
0 0 0 3 0 0 0 0 6 10 13 23 23 26 32 19 13 19 29 45 48 52 55 68 74 77 77 77 68 71 68 71 71 71 68 68 61 61 61 58 61 55 55 48 42 42 45 48 48
0 0 0 0 6 0 0 3 6 10 16 16 26 26 32 23 16 10 26 45 58 58 61 61 68 71 65 74 74 68 65 65 65 65 65 68 65 68 58 61 48 48 48 45 42 42 42 48 48

GEFSSGP_con_cape1000_288.txt.gz
Probability
32 19 10 13 23 0 0 0 0 0 0 0 0 0 0 0 0 0 0 6 16 10 42 61 68 61 68 61 61 61 65 65 58 68 71 68 65 61 61 61 55 61 71 74 68 71 65 71 68
3 10 13 16 3 0 0 0 0 0 0 0 0 0 0 0 0 0 0 10 10 10 19 42 65 58 58 65 65 61 61 71 65 68 71 65 65 65 65 61 68 71 68 68 61 65 61 55 52
0 16 19 16 3 0 0 0 0 0 0 0 0 0 3 0 3 0 0 3 3 6 23 45 68 65 61 65 68 65 58 61 68 68 71 71 65 68 61 58 74 71 61 61 58 65 61 48 48
3 13 23 3 0 0 0 0 0 0 0 0 0 0 3 3 0 0 0 3 0 6 23 45 68 65 61 65 65 65 65 61 71 68 65 71 68 71 71 65 68 68 65 58 61 58 48 45 45
10 13 10 0 0 0 0 0 0 0 0 0 0 0 3 0 0 0 0 0 0 6 26 45 77 71 68 68 68 65 61 61 58 61 71 65 68 71 71 68 71 68 71 58 58 52 55 45 48
10 6 3 0 0 0 0 0 0 0 0 0 0 0 0 0 0 3 3 3 3 13 16 39 71 71 68 71 68 68 68 61 61 61 65 68 74 71 61 65 65 61 65 58 55 48 48 52 52
13 3 0 0 0 0 0 0 0 0 0 0 0 0 0 0 0 0 3 3 3 10 19 26 48 48 58 61 65 65 68 65 68 65 61 65 71 71 71 61 68 61 58 58 55 52 45 45 52
13 3 0 0 0 0 0 0 0 0 0 0 0 0 3 0 3 0 3 3 3 6 10 10 19 26 35 48 61 68 71 71 74 65 61 61 68 71 71 74 74 61 61 65 52 61 58 45 55
6 0 0 0 0 0 0 0 0 0 0 0 0 0 3 6 3 0 3 3 3 3 6 6 3 13 16 23 45 52 58 71 65 61 65 45 29 23 32 45 65 58 58 58 55 52 52 52 52
0 0 0 0 0 0 0 0 0 0 0 0 3 6 6 6 6 0 3 3 3 3 0 3 6 3 10 16 23 19 16 23 16 16 13 6 6 6 13 39 65 68 58 55 61 55 52 35 13
0 0 0 0 0 0 0 0 0 0 0 3 3 6 6 6 6 3 6 3 3 6 10 3 6 6 6 10 13 16 10 10 13 10 3 3 3 3 0 0 16 16 23 10 26 35 19 13 3
0 0 0 0 0 0 0 0 0 0 0 3 6 10 10 6 6 3 6 10 6 6 16 10 10 6 13 19 19 13 13 16 6 10 6 3 3 3 3 3 6 6 6 6 6 6 6 6 0
0 0 0 0 0 0 0 0 0 3 3 6 10 10 10 6 6 3 6 6 6 6 13 10 10 10 13 13 16 16 16 13 10 6 10 13 3 3 6 6 6 6 6 6 6 6 6 6 0
0 0 0 0 0 0 0 0 0 3 6 10 13 10 10 6 3 3 6 6 6 10 13 10 13 10 10 16 10 13 16 16 13 13 10 16 10 6 6 6 6 6 6 6 6 6 10 10 3
0 0 0 0 0 0 0 0 0 3 6 6 6 10 10 10 3 6 6 10 6 10 10 10 13 16 16 13 16 19 19 16 16 16 10 16 16 13 13 16 10 6 10 6 3 13 3 3 3
0 0 0 0 0 0 0 0 0 0 6 6 10 10 10 6 3 13 16 10 10 13 13 19 26 16 16 13 16 26 16 13 19 16 13 19 16 13 13 16 16 13 13 10 10 3 3 3 0
0 0 0 0 0 0 0 0 0 3 6 6 10 10 6 6 3 13 16 16 16 16 16 16 16 23 26 19 29 19 13 16 23 16 16 23 19 13 13 16 16 13 13 16 13 6 3 3 3
0 0 0 0 0 0 0 0 0 3 3 6 10 6 6 6 6 10 16 16 19 10 13 16 19 19 39 39 26 23 19 23 19 16 19 23 23 19 16 16 19 13 16 16 16 16 10 10 10
0 0 0 0 0 0 0 0 0 0 0 6 10 6 6 10 6 6 13 19 16 16 19 19 19 26 29 29 29 23 23 26 16 16 19 23 23 23 13 13 13 16 16 13 19 19 16 10 10
0 0 0 0 0 0 0 0 0 0 0 3 10 6 10 6 6 10 13 19 23 19 19 23 26 26 35 26 32 23 23 26 19 23 23 16 16 16 23 16 13 16 16 16 19 23 16 13 10
0 0 0 0 0 0 0 0 0 0 3 3 3 13 6 3 6 10 13 23 19 19 23 26 26 32 42 32 32 35 26 19 16 16 16 13 13 16 16 16 13 13 16 19 19 16 19 16 13
0 0 0 0 0 0 0 0 3 3 6 6 10 16 10 10 3 3 10 16 19 23 23 23 32 29 39 39 29 26 26 23 19 16 10 13 23 19 19 16 13 16 19 16 16 19 16 16 16
0 0 0 0 0 0 0 0 3 3 6 6 6 10 13 13 0 0 0 19 23 26 26 23 32 39 42 35 29 19 26 26 16 13 13 10 13 16 16 13 19 19 16 16 16 16 16 16 13
0 0 0 0 0 0 0 0 3 3 6 6 10 13 10 10 13 10 10 23 29 29 29 29 42 39 39 39 29 29 35 32 16 19 13 10 13 16 19 19 16 16 19 13 10 3 6 6 6
0 0 0 0 0 0 0 3 3 3 6 6 10 10 10 6 6 6 10 13 29 29 29 45 48 42 42 39 35 29 29 29 26 19 13 10 10 19 19 16 16 16 19 6 3 6 6 6 6
0 0 0 0 0 0 0 3 6 3 3 10 10 10 6 6 3 6 10 13 19 26 32 48 52 48 45 45 42 32 23 26 26 19 19 13 19 23 19 16 16 10 6 10 10 10 6 6 10
0 0 0 0 0 0 0 3 6 3 3 3 6 3 6 10 3 6 10 6 23 19 29 48 45 48 42 45 42 29 32 32 26 23 23 23 19 19 13 16 13 13 13 10 13 13 16 13 10
0 0 0 0 0 0 0 0 3 3 3 3 6 10 13 10 6 6 6 10 16 19 29 52 48 48 45 45 42 35 32 35 32 29 32 26 23 13 16 16 13 10 10 10 10 10 10 10 6
0 0 0 0 0 0 0 0 3 3 6 10 3 6 10 10 6 6 6 10 16 26 35 48 52 45 45 42 39 42 35 26 26 26 29 26 23 23 16 10 16 13 10 6 6 10 10 10 10
0 0 0 0 0 0 0 0 0 0 3 6 6 6 6 6 3 3 3 6 16 26 39 48 52 52 52 39 35 42 42 35 26 26 19 16 16 13 13 16 13 13 10 6 6 10 10 10 10